Location: Aufkirchen
(47.9603°N, 11.3653°E)
Time: 04:55:29
(UTC+01:00)

Courier 1B Rocket - Pass Details

Date: 02 December 2020
Orbit: 920 x 1202 km, 28.2° (Epoch: 23 January)

Event Time Altitude Azimuth Distance (km) Brightness Sun altitude
Exits shadow 05:36:57 - 221° (SW) 3,671 7.7 -20.6°
Reaches altitude 10° 05:39:30 10° 208° (SSW) 3,124 7.5 -20.2°
Maximum altitude 05:43:50 16° 174° (S) 2,697 7.5 -19.5°
Drops below altitude 10° 05:48:10 10° 139° (SE) 3,110 8.4 -18.7°
Sets 05:52:16 0° 119° (ESE) 4,045 9.7 -18.1°
